Regional Weather Roundup
Issued by NWS Sioux Falls, SD

Home | Current Version | Previous Version | Text Only | Print | Product List | Glossary On
Versions: 1 2 3 4 5 6 7 8 9 10 11 12 13 14 15 16 17 18 19 20 21 22 23 24 25 26 27 28 29 30 31 32 33 34 35 36 37 38 39 40 41 42 43 44 45 46 47 48 49 50
000
ASUS43 KFSD 260802
RWRFSD

WEATHER ROUNDUP FOR SE SOUTH DAKOTA/SW MINNESOTA/NW IOWA
NATIONAL WEATHER SERVICE SIOUX FALLS SD
300 AM CDT FRI AUG 26 2016

NOTE: "FAIR" INDICATES FEW OR NO CLOUDS BELOW 12,000 FEET WITH NO
SIGNIFICANT WEATHER AND OR OBSTRUCTIONS TO VISIBILITY.


SDZ038>040-050-052>070-260900-
SOUTHEAST SOUTH DAKOTA

CITY           SKY/WX    TMP DP  RH WIND       PRES   REMARKS
BROOKINGS      FAIR      50  49  96 CALM      30.17F
CHAMBERLAIN    FAIR      54  50  86 CALM      30.18F
HURON          FAIR      48  46  93 W3        30.17F
MADISON        FAIR      48  48 100 N3        30.18S
MITCHELL       FAIR      51  49  92 W3        30.19R
SIOUX FALLS    FAIR      53  52  96 CALM      30.17F
WINNER         FAIR      53  48  83 CALM      30.19F
YANKTON        FAIR      52  46  82 NW3       30.17R
$$

MNZ071-072-080-081-089-090-097-098-260900-
SOUTHWEST MINNESOTA

CITY           SKY/WX    TMP DP  RH WIND       PRES   REMARKS
FAIRMONT       FAIR      54  52  93 CALM      30.17F
JACKSON        FAIR      54  52  94 CALM      30.18S
LUVERNE        FAIR      50  46  87 CALM      30.18S
MARSHALL       FAIR      52  50  93 W3        30.17F
MONTEVIDEO     FAIR      54  50  87 W6        30.17F
REDWOOD FALLS  FAIR      54  51  90 W3        30.15F
TRACY          FAIR      55  53  92 SW5       30.17S
WINDOM         FAIR      52  50  93 CALM      30.17S
WORTHINGTON    FAIR      53  52  96 CALM      30.18F
$$

IAZ001>003-012>014-020>022-031-032-NEZ013-014-SDZ071-260900-
NORTHWEST IOWA

CITY           SKY/WX    TMP DP  RH WIND       PRES   REMARKS
CHEROKEE       FAIR      56  56 100 CALM      30.16F
DENISON        FAIR      55  55 100 CALM      30.14F FOG
ESTHERVILLE    FAIR      52  52 100 CALM      30.17F
LE MARS        FAIR      55  55 100 CALM      30.17S
SHELDON        FAIR      52  52 100 CALM      30.16S FOG
SIOUX CITY     FAIR      57  55  93 CALM      30.16F
SPENCER        FAIR      52  51  97 CALM      30.17F
STORM LAKE     FAIR      59  55  88 N5        30.17
$$

ABBREVIATIONS USED IN REMARKS
   TC - TEMPERATURE IN CELSIUS
  WCI - WIND CHILL INDEX
   HX - HEAT INDEX
  VSB - VISIBILITY




USA.gov is the U.S. government's official web portal to all federal, state and local government web resources and services.